Weather History for KITR - April, 2014

Change the Weather History Date:

Sunday, April 13, 2014

  Actual Average Record
Temperature  
Mean Temperature 39 °F 47 °F  
Max Temperature 53 °F 62 °F 87 °F (2006)
Min Temperature 24 °F 33 °F 7 °F (1997)
Degree Days  
Heating Degree Days 26    
Moisture  
Dew Point 25 °F    
Average Humidity 82    
Maximum Humidity 92    
Minimum Humidity 45    
Precipitation  
Precipitation 0.04 in 0.05 in 0.67 in (1966)
Month to date precipitation 0.15 0.43  
Year to date precipitation 1.06 2.12  
Sea Level Pressure  
Sea Level Pressure 29.92 in    
Wind  
Wind Speed 23 mph (North)    
Max Wind Speed 31 mph    
Max Gust Speed 40 mph    
Visibility 5 miles    
Events Fog , Rain , Snow    
T = Trace of Precipitation, MM = Missing Value Source: NWS Daily Summary

Daily Weather History Graph

Daily Weather History Graph

Search for Another Location

Airport or City:

Trip Planner

Search our weather history database for the weather conditions in past years. The results will help you decide how hot, cold, wet, or windy it might be!

Date:

Astronomy

Apr. 13, 2014 Rise Set
Actual Time 6:15 AM MDT 7:24 PM MDT
Civil Twilight 5:47 AM MDT 7:52 PM MDT
Nautical Twilight 5:14 AM MDT 8:25 PM MDT
Astronomical Twilight 4:40 AM MDT 8:59 PM MDT
Moon 6:05 PM MDT (4/13) 5:14 AM MDT (4/13)
Length of Visible Light 14h 04m
Length of Day
13h 09m
Waxing Gibbous, 97% of the Moon is Illuminated
Apr 13
Waxing Gibbous
Apr 15
Full
Apr 22
Last Quarter
Apr 29
New
May 6
First Quarter

Hourly Weather History & Observations

Time (MDT) Temp. Windchill Dew Point Humidity Pressure Visibility Wind Dir Wind Speed Gust Speed Precip Events Conditions
12:53 AM 53.1 °F - 32.0 °F 45% 29.55 in 10.0 mi ENE 17.3 mph - N/A   Clear
1:53 AM 51.1 °F - 30.9 °F 46% 29.53 in 10.0 mi NE 20.7 mph 27.6 mph N/A   Partly Cloudy
2:53 AM 48.9 °F - 30.9 °F 50% 29.54 in 10.0 mi NE 25.3 mph 31.1 mph N/A   Partly Cloudy
3:53 AM 46.0 °F 38.5 °F 28.9 °F 51% 29.55 in 10.0 mi NNE 19.6 mph 28.8 mph N/A   Clear
4:53 AM 45.0 °F 37.4 °F 30.9 °F 58% 29.56 in 10.0 mi NNE 18.4 mph 27.6 mph N/A   Mostly Cloudy
5:53 AM 44.1 °F 35.9 °F 30.9 °F 60% 29.62 in 10.0 mi North 19.6 mph 28.8 mph N/A   Overcast
6:03 AM 44.1 °F 34.6 °F 30.9 °F 60% 29.73 in 10.0 mi North 26.5 mph 35.7 mph N/A   Overcast
6:20 AM 43.0 °F 33.8 °F 30.9 °F 62% 29.75 in 10.0 mi North 23.0 mph 34.5 mph N/A   Overcast
6:53 AM 41.0 °F 30.5 °F 33.1 °F 73% 29.68 in 10.0 mi North 26.5 mph 33.4 mph N/A   Overcast
7:34 AM 37.9 °F 26.8 °F 32.0 °F 79% 29.78 in 10.0 mi North 24.2 mph 36.8 mph N/A   Overcast
7:41 AM 37.0 °F 24.5 °F 32.0 °F 82% 29.78 in 10.0 mi North 29.9 mph 35.7 mph N/A   Overcast
7:53 AM 36.0 °F 23.7 °F 32.0 °F 86% 29.73 in 10.0 mi North 26.5 mph 36.8 mph N/A   Overcast
8:53 AM 34.0 °F 21.3 °F 28.9 °F 82% 29.77 in 10.0 mi North 25.3 mph 36.8 mph N/A   Overcast
9:53 AM 32.0 °F 18.4 °F 28.9 °F 88% 29.81 in 2.5 mi North 26.5 mph 34.5 mph 0.00 in Snow Light Snow
9:59 AM 32.0 °F 20.5 °F 28.9 °F 88% 29.85 in 1.8 mi North 18.4 mph 33.4 mph 0.00 in Snow Light Snow
10:19 AM 32.0 °F 18.9 °F 28.9 °F 88% 29.86 in 1.0 mi North 24.2 mph 32.2 mph 0.01 in Snow Light Snow
10:39 AM 32.0 °F 20.8 °F 28.9 °F 88% 29.86 in 1.0 mi North 17.3 mph 28.8 mph 0.01 in Snow Light Snow
10:45 AM 30.9 °F 17.8 °F 28.9 °F 92% 29.86 in 0.8 mi North 23.0 mph 28.8 mph 0.02 in Snow Light Snow
10:53 AM 30.9 °F 17.8 °F 28.9 °F 92% 29.85 in 0.5 mi North 23.0 mph 32.2 mph 0.02 in Fog , Snow Light Snow
11:09 AM 30.9 °F 17.5 °F 28.0 °F 89% 29.87 in 0.8 mi North 24.2 mph 33.4 mph 0.00 in Snow Light Snow
11:20 AM 30.9 °F 17.8 °F 28.0 °F 89% 29.87 in 0.8 mi North 23.0 mph 33.4 mph 0.01 in Snow Light Snow
11:33 AM 30.9 °F 17.2 °F 28.0 °F 89% 29.87 in 1.2 mi North 25.3 mph 32.2 mph 0.01 in Snow Light Snow
11:38 AM 30.9 °F 17.5 °F 28.0 °F 89% 29.87 in 1.8 mi North 24.2 mph 34.5 mph 0.01 in Snow Light Snow
11:53 AM 30.9 °F 17.5 °F 28.0 °F 89% 29.86 in 5.0 mi North 24.2 mph 33.4 mph 0.01 in   Overcast
12:41 PM 30.9 °F 17.5 °F 27.0 °F 85% 29.89 in 4.0 mi North 24.2 mph 32.2 mph 0.00 in Rain Light Freezing Rain
12:53 PM 30.0 °F 15.2 °F 27.0 °F 88% 29.87 in 5.0 mi North 28.8 mph 35.7 mph 0.00 in Rain Light Freezing Rain
1:04 PM 30.0 °F 16.0 °F 27.0 °F 88% 29.89 in 4.0 mi North 25.3 mph 33.4 mph 0.00 in Rain Light Freezing Rain
1:09 PM 30.0 °F 16.6 °F 27.0 °F 88% 29.89 in 4.0 mi North 23.0 mph 34.5 mph 0.00 in Rain Light Freezing Rain
1:25 PM 30.0 °F 16.9 °F 27.0 °F 88% 29.89 in 4.0 mi NNE 21.9 mph - 0.00 in Rain Light Freezing Rain
1:53 PM 30.0 °F 16.3 °F 26.1 °F 85% 29.90 in 6.0 mi North 24.2 mph 33.4 mph 0.00 in   Overcast
2:21 PM 28.9 °F 13.7 °F 25.0 °F 85% 29.90 in 10.0 mi North 28.8 mph 35.7 mph N/A   Overcast
2:28 PM 28.9 °F 14.0 °F 25.0 °F 85% 29.90 in 10.0 mi NNE 27.6 mph 36.8 mph N/A   Overcast
2:53 PM 28.9 °F 14.3 °F 25.0 °F 85% 29.90 in 10.0 mi North 26.5 mph 35.7 mph N/A   Overcast
3:43 PM 28.0 °F 13.3 °F 24.1 °F 85% 29.92 in 10.0 mi North 25.3 mph 32.2 mph N/A   Overcast
3:53 PM 28.0 °F 13.6 °F 24.1 °F 85% 29.94 in 10.0 mi North 24.2 mph - N/A   Overcast
4:10 PM 28.0 °F 12.3 °F 23.0 °F 81% 29.90 in 10.0 mi North 29.9 mph 39.1 mph N/A   Overcast
4:53 PM 27.0 °F 11.0 °F 23.0 °F 85% 29.96 in 10.0 mi North 28.8 mph 35.7 mph N/A   Overcast
5:09 PM 26.1 °F 10.4 °F 21.9 °F 84% 29.95 in 10.0 mi North 26.5 mph 35.7 mph N/A   Overcast
5:34 PM 26.1 °F 11.0 °F 21.9 °F 84% 29.97 in 5.0 mi North 24.2 mph 35.7 mph 0.00 in Snow Light Snow
5:47 PM 26.6 °F 12.0 °F 21.2 °F 80% 29.98 in 1.8 mi North 23.0 mph 35.7 mph 0.00 in Snow Light Snow
5:48 PM 26.1 °F 10.7 °F 21.9 °F 84% 30.01 in 1.5 mi North 25.3 mph 35.7 mph 0.00 in Snow Light Snow
5:58 PM 25.0 °F 7.8 °F 21.9 °F 88% 29.98 in 0.5 mi North 31.1 mph 40.3 mph 0.00 in Fog , Snow Snow
6:35 PM 25.0 °F 9.2 °F 21.0 °F 85% 30.00 in 1.0 mi North 25.3 mph 33.4 mph 0.01 in Snow Light Snow
6:45 PM 25.0 °F 9.9 °F 21.0 °F 85% 30.01 in 0.8 mi North 23.0 mph 35.7 mph 0.01 in Snow Light Snow
6:53 PM 25.0 °F 9.9 °F 21.0 °F 85% 30.06 in 0.8 mi North 23.0 mph 31.1 mph 0.01 in Snow Light Snow
7:19 PM 24.1 °F 7.1 °F 21.0 °F 88% 30.03 in 1.0 mi North 28.8 mph 34.5 mph 0.00 in Snow Light Snow
7:31 PM 24.1 °F 9.4 °F 21.0 °F 88% 30.05 in 1.0 mi North 20.7 mph 38.0 mph 0.00 in Snow Light Snow
7:45 PM 24.1 °F 7.1 °F 21.0 °F 88% 30.05 in 0.8 mi North 28.8 mph 38.0 mph 0.00 in   Overcast
7:53 PM 24.1 °F 7.4 °F 21.0 °F 88% 30.11 in 0.8 mi North 27.6 mph 36.8 mph 0.00 in   Mist
8:08 PM 24.1 °F 8.7 °F 21.0 °F 88% 30.05 in 1.0 mi North 23.0 mph 34.5 mph N/A   Mist
8:50 PM 24.8 °F 9.0 °F 21.2 °F 86% 30.09 in 1.0 mi North 25.3 mph 39.1 mph N/A   Overcast
8:53 PM 24.1 °F 8.3 °F 21.0 °F 88% 30.17 in 1.0 mi North 24.2 mph 39.1 mph N/A   Overcast
9:09 PM 24.1 °F 7.4 °F 21.0 °F 88% 30.08 in 1.0 mi North 27.6 mph 35.7 mph N/A   Overcast
9:36 PM 24.1 °F 8.0 °F 21.0 °F 88% 30.11 in 2.5 mi North 25.3 mph 32.2 mph N/A   Overcast
9:53 PM 24.1 °F 8.3 °F 21.0 °F 88% 30.20 in 3.0 mi North 24.2 mph 32.2 mph N/A   Overcast
9:59 PM 24.1 °F 7.7 °F 21.0 °F 88% 30.12 in 2.5 mi North 26.5 mph 35.7 mph N/A   Overcast
10:11 PM 24.1 °F 9.0 °F 21.0 °F 88% 30.13 in 2.0 mi North 21.9 mph 32.2 mph N/A   Overcast
10:19 PM 24.1 °F 9.0 °F 21.0 °F 88% 30.13 in 2.0 mi North 21.9 mph 31.1 mph N/A   Overcast
10:53 PM 24.1 °F 8.7 °F 21.0 °F 88% 30.20 in 1.8 mi North 23.0 mph 35.7 mph N/A   Overcast
11:15 PM 24.1 °F 8.0 °F 21.0 °F 88% 30.14 in 2.0 mi North 25.3 mph 35.7 mph N/A   Overcast
11:27 PM 24.1 °F 9.0 °F 21.0 °F 88% 30.14 in 3.0 mi North 21.9 mph 33.4 mph N/A   Overcast
11:40 PM 24.1 °F 9.4 °F 19.9 °F 84% 30.14 in 2.5 mi North 20.7 mph 31.1 mph N/A   Overcast
11:53 PM 24.1 °F 9.4 °F 21.0 °F 88% 30.23 in 2.5 mi North 20.7 mph 27.6 mph N/A   Overcast